DMSP 5D-2 F13 DEB, 40397

Orbit data source: Space-Track

DMSP 5D-2 F13 DEB, 40397 is space debris in SSO originally from a launch on Fri, 24 Mar 1995 UTC launched from the Air Force Western Test Range (AFWTR). Debris objects in space refer to the collection of defunct objects orbiting the Earth. Examples of debris include non-operational satellites, rocket bodies, and fragments generated from explosions, collisions, or faulty payload assembly.

Loading next visibility...
Identifier
40397, 1995-015J
Orbit
SSO
Country
Flag of USUS
Related business
Manufacturer
Unknown
Mission
Spacecraft
Bus & Motor
Unknown
Mass
Unknown
Launch date (UTC)
1995-03-24 (31 years ago)
Launch vehicle
Unknown
Launch site
Air Force Western Test Range (AFWTR)
Object type
Payload
Rocket body
Debris
Shape & HBR
Unknown shape, 0.1 m
Radar Cross Section
Small (<0.1 m²)

Expand to show TLE details & history
Last TLE update: 21 hours ago

TLE from 21 hours ago
0 DMSP 5D-2 F13 DEB
1 40397U 95015J   25298.02937704  .00003084  00000-0  12289-2 0  9990
2 40397  98.7127 320.9125 0007583 356.0357   4.0763 14.29295328552897
Epoch: 2025-10-25T00:42Z
TLE epoch observation values (Epoch: 2025-10-25T00:42:18.176Z)
Latitude
-0.00004°
Longitude
-83.32902°
Altitude
791.588 km
Speed
7.461 km/s
True Right ascension
21h 23m 39s
True Declination
0° 00' 00"
Sunlit
Object was in daylight at epoch
Visualization orbit readout
Latitude
Unknown
Longitude
Unknown
Altitude
Unknown
Speed
Unknown
Apparent Right ascension
Unknown
Apparent Declination
Unknown
Sunlit
N/A
Visualization observer readout
Local Sidereal Time
17:19:41
Azimuth
Unknown
Elevation
Unknown
Doppler factor
Unknown
Orbital elements
Apogee altitude
796.67 km
Perigee altitude
785.797 km
Semi-major axis
7,169.371 km
Eccentricity
0.00076
Inclination
98.7127°
RAAN
320.9125°
Arg. of periapsis
356.0357°
True anomaly
4.08248°
Mean anomaly
4.0763°
Eccentric anomaly
4.07939°
Mean motion
3.57538 °/min
Orbital period
100.69 mins
BSTAR
0.0012289
Loading maneuver chart data...
Computing Atmospheric mass density...

Documentation

Showing up to 5 results
|